星链-11707 (STARLINK-11707)

导读 | 豆包AI

STARLINK-11707是美国SpaceX星链计划中的一颗卫星,于2025年6月10日发射升空。作为星链星座的组成部分,它旨在为全球提供低延迟、高速率的宽带互联网服务,尤其覆盖偏远地区。星链卫星依靠近地轨道运行,通过多星组网实现全球网络覆盖,该卫星的发射进一步扩充了星链星座的规模,提升系统服务覆盖能力。

基本信息
目录编号:
64328
目录名称:
STARLINK-11707
国际标识:
2025-124M
轨道中心:
EARTH
卫星名称:
星链-11707
卫星全名:
星链-11707 (STARLINK-11707)
卫星状态:
在轨 (已飞行277 天)
发射日期:
2025-06-10 UTC
国别 :
美国 (US)
星等 :
--
轨道信息
数据来源 国际轨道数据
星历时间: 2026-03-14T03:29:37+0800
21小时前
查看轨道信息
半长轴: 6733.81km
偏心率: 0.0001308
轨道倾角: 42.999°
近地点辐角 245.403°
升交点赤经 4.284°
平近点角 114.670°
近地点: 354.792km
远地点: 356.554km
周期: 91.654分钟
每日圈数: 15.711279
详细信息
固有亮度:
5
最大亮度:
2.5
卫星平台:
Starlink V1.0
覆盖范围:
全球
运营商:
太空探索技术公司
运营商所在国:
美国
制造商(研发单位):
太空探索技术公司
制造商所在国:
美国
使用方式:
暂无
卫星简介
Starlink 计划是 SpaceX 推出的全球卫星互联网项目,通过发射低轨道卫星,为全球尤其是偏远地区提供高速、低延迟的互联网服务。自 2019 年起,Starlink 已部署数千颗卫星,旨在缩小全球数字鸿沟,推动互联网普及。该项目还为军事、航空等行业提供通信支持,带来广泛经济效益。
2D轨道图
3D轨道图
轨道高度分析图
轨道倾角分析图
轨道综合分析图
查看轨道综合分析图